This is the latest recevied weather packets stored in our database for station/object EB1BCG-1. If no packets are shown the sender has not sent any weather packets the latest 10 day(s).
| Time | Temp. | Humidity | Pressure | Rain* | Wind** | Luminosity | Snow |
|---|---|---|---|---|---|---|---|
| 1777838886 | 10.56° C | 99% | 1012.2 hPa | 0.51 mm | 0 m/s | - | - |
| 1777838278 | 10.56° C | 99% | 1011.9 hPa | 0.51 mm | 0 m/s | - | - |
| 1777837672 | 10.56° C | 99% | 1012 hPa | 0.51 mm | 0 m/s | - | - |
| 1777837066 | 10.56° C | 99% | 1011.8 hPa | 0.51 mm | 0 m/s | - | - |
| 1777836526 | 10.56° C | 98% | 1012 hPa | 0 mm | 0 m/s | - | - |
| 1777835916 | 10.56° C | 99% | 1011.9 hPa | 0 mm | 0 m/s | - | - |
| 1777835311 | 10.56° C | 99% | 1011.8 hPa | 0 mm | 0 m/s | - | - |
| 1777834706 | 10.56° C | 95% | 1011.5 hPa | 0 mm | 0 m/s | - | - |
| 1777834095 | 11.11° C | 91% | 1011.2 hPa | 0 mm | 0 m/s | - | - |
| 1777833489 | 11.67° C | 94% | 1011 hPa | 0 mm | 0 m/s | - | - |
| 1777832886 | 11.67° C | 90% | 1011.2 hPa | 0 mm | 0 m/s | - | - |
| 1777832275 | 12.22° C | 91% | 1011.1 hPa | 0 mm | 0 m/s | - | - |
| 1777831668 | 12.22° C | 86% | 1011.1 hPa | 0 mm | 0 m/s | - | - |
| 1777831061 | 12.22° C | 87% | 1011 hPa | 0 mm | 0 m/s | - | - |
| 1777830456 | 12.22° C | 85% | 1010.9 hPa | 0 mm | 0 m/s | - | - |
| 1777829848 | 12.22° C | 86% | 1010.8 hPa | 0 mm | 0 m/s | - | - |
| 1777829241 | 12.78° C | 83% | 1010.8 hPa | 0 mm | 0 m/s | - | - |
| 1777828634 | 12.78° C | 83% | 1010.6 hPa | 0 mm | 0 m/s | - | - |
| 1777828027 | 12.78° C | 88% | 1010.7 hPa | 0 mm | 0 m/s | - | - |
| 1777827420 | 13.33° C | 84% | 1010.6 hPa | 0 mm | 0 m/s | - | - |
| 1777826210 | 12.78° C | 96% | 1010.7 hPa | 0 mm | 0 m/s | - | - |
| 1777825599 | 12.22° C | 93% | 1010.9 hPa | 0 mm | 0 m/s | - | - |
| 1777824992 | 12.78° C | 99% | 1011.1 hPa | 2.03 mm | 0 m/s | - | - |
| 1777824386 | 13.33° C | 99% | 1011.2 hPa | 2.03 mm | 0 m/s | - | - |
| 1777823779 | 11.67° C | 99% | 1011.2 hPa | 2.03 mm | 0 m/s | - | - |
* Rain latest hour (hover to see other rain measurements)
** Current wind speed in m/s (hover to see current wind gust speed)